Tracking 35237 objects as of 4-Sep-2026
HD Live streaming from Space Station
objects crossing your sky now

FLOCK 4P 10


FLOCK 4P 10 is no longer on orbit
FLOCK 4P 10 is classified as:


NORAD ID: 44808
Int'l Code: 2019-081E
Launch date: November 27, 2019
Source: United States (US)
Launch site: SRIHARIKOTA (SRI)
Decay date: 2023-05-02
Your satellite tracking list
Your tracking list is empty




NASA's NSSDC Master Catalog

Two Line Element Set (TLE):
1 44808U 19081E   23119.46665874  .17334194  25777-5  35450-3 0  9990
2 44808  97.3329 193.2882 0011668 246.0708 113.9373 16.46207393190616
Source of the keplerian elements: AFSPC